GFSFLT1_925_thetae_042.txt.gz
Theta_e
324 321 318 318 316 316 315 313 313 314 314 316 320 321 319 317 315 323 325 326 328 327 326 324 322 321 319 317 315 312 311 310
327 323 320 319 319 316 316 314 314 317 319 323 323 321 322 322 323 327 328 326 327 326 325 323 322 321 318 317 313 311 308 310
325 324 323 324 321 319 321 319 321 320 322 319 322 320 320 321 324 326 327 327 326 325 325 323 322 320 318 315 313 312 310 311
326 325 325 324 321 321 321 322 323 324 325 324 323 322 321 324 325 325 327 327 326 325 325 323 321 319 317 314 313 311 311 311
328 326 325 324 325 323 322 323 324 325 326 328 324 323 324 326 327 327 326 327 327 325 323 322 319 318 316 314 312 310 311 312
327 328 327 325 326 326 325 324 325 326 326 328 328 324 326 326 327 326 327 326 326 324 322 320 318 317 315 315 313 310 312 311
327 327 327 328 326 327 328 328 328 328 329 328 329 325 327 328 327 327 327 325 323 322 319 317 318 316 315 311 309 310 310 309
328 328 328 329 328 328 328 329 329 329 330 330 328 329 328 327 326 326 326 325 321 320 319 317 317 316 313 309 309 309 309 309
328 327 328 329 330 330 329 329 329 329 330 331 329 327 328 328 327 326 326 324 321 320 319 317 316 314 312 308 310 310 308 306
329 328 327 330 330 331 331 331 329 330 330 333 331 322 329 329 327 325 326 325 322 322 319 317 314 312 308 308 309 308 306 304
328 327 327 328 331 332 332 331 331 331 331 333 332 328 329 326 325 327 327 324 323 322 318 316 313 310 307 308 308 305 303 303
327 327 326 327 329 331 334 334 333 333 332 333 332 330 327 327 328 328 326 325 323 319 316 313 310 307 307 306 305 304 302 301
327 328 327 326 327 329 336 336 335 334 334 333 331 329 326 326 326 326 326 324 321 317 312 309 307 307 306 305 303 301 299 301
326 328 329 329 328 328 332 334 336 334 333 332 332 327 327 326 325 325 324 321 317 314 311 309 307 306 305 304 302 298 299 299
323 328 330 331 330 330 331 333 333 334 333 332 329 327 328 327 325 323 320 317 315 313 310 308 306 305 303 300 299 299 298 299
322 326 331 332 333 332 332 333 332 332 332 328 326 325 323 320 319 318 316 314 313 311 309 306 304 302 300 299 298 298 298 298
321 323 330 332 332 332 331 328 327 326 326 322 321 320 318 316 315 313 312 311 309 308 306 303 301 300 298 298 298 298 297 298
324 325 330 330 330 329 327 325 324 323 320 318 318 317 315 312 308 307 305 303 302 301 300 299 298 298 297 297 297 296 297 296
325 327 328 327 326 324 322 321 319 316 315 313 312 310 307 304 303 301 300 299 299 299 298 297 297 297 297 297 296 296 296 296

GFSFLT1_925_thetae_045.txt.gz
Theta_e
317 316 316 315 315 317 315 315 314 315 315 314 313 314 314 313 314 314 316 323 317 321 325 323 323 322 321 319 317 314 312 310
317 316 316 315 316 316 314 314 313 313 313 312 313 313 312 313 317 318 319 322 323 325 325 325 323 322 320 319 316 314 310 309
319 317 317 315 316 316 314 313 313 313 314 313 314 316 319 320 319 321 321 318 323 325 324 324 323 323 320 318 317 312 312 309
323 318 317 317 315 315 314 313 313 314 315 317 321 323 321 321 321 320 319 322 325 325 325 325 323 323 321 318 316 313 312 310
324 321 321 320 318 316 315 314 315 316 319 322 321 322 320 320 320 320 321 322 326 326 325 325 324 322 320 318 315 313 312 311
324 322 323 322 320 318 319 320 318 321 322 322 322 323 322 320 320 323 324 325 325 326 325 324 323 321 319 317 314 314 313 311
323 324 323 323 320 319 319 321 321 322 323 324 326 327 322 323 324 325 326 326 327 327 325 323 322 320 318 316 315 314 311 312
325 323 323 323 322 321 320 321 322 323 324 326 325 325 326 323 324 326 326 325 326 325 324 323 320 319 318 316 314 312 310 311
325 325 324 323 323 324 323 323 322 323 325 324 325 325 326 326 326 326 326 325 324 322 323 322 320 318 317 316 312 310 309 309
324 325 325 325 324 324 325 325 325 326 327 328 327 327 328 327 326 327 326 325 325 324 323 321 321 318 317 316 312 312 309 309
323 323 325 326 326 325 325 326 327 326 327 329 328 329 328 329 328 327 326 325 325 324 322 321 320 318 316 314 312 310 309 307
321 323 326 325 327 328 328 327 327 328 327 328 330 330 329 329 327 328 327 325 324 324 323 321 318 316 313 312 308 308 306 303
320 322 324 324 328 329 328 329 329 329 328 329 331 330 329 327 328 326 325 326 325 324 322 319 316 314 312 310 307 306 303 303
321 322 322 324 324 328 328 330 329 330 329 331 331 330 331 329 327 326 327 326 325 322 319 316 312 311 309 307 305 304 302 301
320 322 324 326 328 330 332 331 331 330 331 332 330 330 327 326 326 325 325 324 322 317 316 313 310 308 307 305 304 301 299 300
318 323 324 326 328 330 331 334 334 333 332 331 330 327 326 326 325 325 323 321 317 316 313 311 308 306 305 304 302 300 301 299
316 325 327 330 330 329 327 329 331 332 330 325 324 324 323 322 320 318 317 315 314 312 309 307 306 305 303 301 301 299 298 297
317 322 329 329 329 327 325 326 325 325 323 321 321 320 317 315 314 313 312 311 310 309 307 305 303 300 301 300 298 297 297 297
321 325 325 327 327 325 324 324 320 320 319 318 316 314 312 311 311 308 306 305 305 302 300 299 298 298 297 297 297 297 296 296

GFSFLT1_925_thetae_048.txt.gz
Theta_e
317 317 316 316 316 317 318 318 320 320 320 319 318 318 317 316 315 315 315 319 321 324 325 324 323 322 321 319 317 315 314 312
317 316 316 315 316 316 316 316 318 318 315 317 317 317 317 316 315 314 315 317 321 321 322 323 323 322 321 320 319 316 314 310
317 315 315 315 316 316 315 315 316 315 314 314 314 315 315 315 314 314 314 314 318 321 323 324 324 323 321 321 320 316 311 310
317 316 315 315 315 316 315 314 315 315 315 314 314 314 314 314 314 314 314 316 317 321 321 324 323 324 321 321 319 317 313 310
318 317 316 314 315 315 314 314 313 313 313 313 313 314 314 314 314 315 315 318 321 320 321 323 324 324 321 322 319 317 316 311
319 317 316 315 314 314 314 314 314 313 314 314 314 317 319 320 320 320 318 319 321 319 322 324 325 324 322 322 320 316 315 313
322 318 317 317 315 314 314 314 313 314 314 315 317 321 320 321 320 320 319 318 318 321 322 325 324 324 323 322 320 316 314 313
325 320 319 318 317 314 314 314 314 314 315 316 318 321 321 320 319 318 320 321 322 324 325 325 325 324 323 320 319 316 313 315
323 322 321 322 319 318 315 316 317 316 317 319 320 321 323 322 322 322 321 321 323 325 325 324 324 323 321 319 317 315 314 313
324 322 322 322 321 319 317 317 318 318 318 320 321 322 323 324 325 324 323 323 325 325 325 325 324 321 320 318 317 315 313 311
324 323 322 323 322 321 318 317 318 318 320 321 322 322 323 324 324 325 325 324 325 325 324 323 323 321 319 318 316 313 311 310
322 323 323 323 322 322 322 321 321 321 321 322 322 323 324 325 325 326 326 325 326 325 325 324 322 320 320 318 315 312 310 310
321 321 323 324 324 323 322 323 323 323 323 324 325 326 327 327 327 327 325 325 326 325 324 323 321 320 319 315 312 311 310 307
319 320 322 324 324 325 324 324 324 325 326 325 326 326 328 327 327 328 321 325 326 324 324 323 321 320 317 313 311 310 307 304
319 319 322 323 322 325 326 326 326 325 326 327 327 327 328 327 328 327 324 322 325 324 324 323 321 318 315 312 309 306 304 303
316 320 321 321 323 324 324 326 326 327 327 327 328 327 327 328 327 327 326 325 325 323 322 319 315 313 310 307 305 304 303 302
314 320 321 324 327 329 329 327 327 328 328 328 328 326 325 324 326 326 325 323 321 320 316 314 311 308 307 306 305 303 301 300
312 319 324 326 328 329 327 328 329 329 328 327 322 323 322 321 322 322 321 317 315 313 312 309 307 306 305 304 303 300 300 298
312 321 325 327 326 326 326 325 325 324 322 320 319 317 316 316 317 316 313 312 310 308 306 305 305 304 302 301 299 298 297 297

GFSFLT1_925_thetae_051.txt.gz
Theta_e
317 318 317 317 317 318 317 320 321 320 319 319 323 324 323 323 321 319 320 320 321 322 323 323 322 322 321 320 318 316 314 312
317 317 317 316 316 317 318 318 318 319 319 321 322 323 321 322 320 320 322 322 322 324 324 323 323 323 322 321 319 316 313 312
316 315 316 315 316 316 318 317 318 319 320 320 319 318 315 316 318 317 316 316 316 320 320 321 324 323 322 320 319 316 315 313
317 315 315 315 315 315 316 317 317 316 317 317 319 318 318 316 316 315 314 314 314 314 319 323 323 323 322 320 319 319 315 312
317 315 314 314 314 315 315 316 317 317 315 315 315 315 315 315 315 316 315 314 314 314 317 319 321 323 324 323 321 319 318 312
318 316 315 314 314 315 315 315 316 316 315 314 314 314 314 314 314 314 315 315 314 314 317 320 319 322 322 323 322 319 318 315
320 317 316 315 314 314 315 315 315 316 315 314 313 313 314 314 314 314 314 315 314 313 317 321 321 323 323 324 322 320 320 315
322 317 316 315 314 314 314 314 313 314 314 314 314 313 314 315 315 317 317 314 314 315 317 319 321 321 323 324 323 321 320 317
323 320 317 316 315 314 313 313 313 313 313 313 313 314 315 317 318 319 319 319 320 320 320 318 320 322 323 320 323 322 320 318
323 322 318 317 316 315 313 313 313 313 313 313 313 314 315 317 320 320 320 320 319 319 318 320 321 323 324 323 323 321 319 317
319 322 321 319 318 317 315 314 314 314 314 314 314 315 316 318 320 321 321 320 320 322 322 321 323 324 324 323 322 319 317 315
319 320 322 321 320 319 318 315 315 315 316 316 315 316 318 319 320 320 321 322 323 324 323 323 324 324 323 321 319 318 317 314
320 321 322 322 321 321 319 318 316 315 316 317 317 317 319 320 322 323 323 324 324 323 324 324 322 323 322 321 318 317 316 311
317 319 322 321 322 322 321 320 318 317 317 317 318 319 320 321 322 323 323 323 324 323 323 323 322 321 320 319 317 318 314 311
315 317 319 322 322 321 321 321 321 320 320 319 319 320 322 323 324 324 325 325 325 324 324 324 322 322 319 317 317 315 311 309
315 317 318 319 322 322 322 322 321 322 322 322 322 322 323 324 325 325 326 326 326 325 321 324 322 320 316 316 314 311 308 306
312 317 318 319 320 321 323 323 323 323 323 323 324 324 325 325 325 325 325 325 323 320 320 321 319 316 315 316 313 309 306 304
313 313 319 319 320 320 321 322 323 325 324 324 325 325 325 325 325 324 322 320 319 318 316 315 315 315 313 311 308 305 304 302
312 310 317 321 322 324 325 326 325 324 325 326 325 325 325 323 323 321 319 318 317 315 314 314 311 309 308 307 305 302 301 299

GFSFLT1_925_thetae_057.txt.gz
Theta_e
319 319 320 320 320 321 323 323 321 319 318 318 320 319 318 319 318 317 317 320 317 317 317 316 316 318 316 315 315 311 310 309
319 319 319 318 319 320 320 321 321 320 319 319 320 320 320 319 318 318 319 321 317 317 317 317 317 317 318 318 315 313 311 309
320 319 318 318 318 318 319 320 321 320 320 320 321 319 321 321 320 319 320 321 317 317 317 317 318 317 317 318 317 316 314 312
320 318 318 318 318 319 319 319 320 320 320 320 321 320 319 320 321 320 319 319 317 317 317 318 319 318 318 320 319 318 315 313
320 317 317 317 318 318 319 318 319 319 320 320 321 318 317 319 320 320 318 317 318 319 320 319 320 320 320 321 321 319 317 316
322 318 317 317 317 316 318 318 318 319 320 320 319 318 318 320 319 320 319 320 320 317 316 316 317 318 319 322 321 320 319 317
322 319 317 317 316 316 316 318 317 318 318 319 319 318 318 316 317 319 317 316 317 316 316 317 316 315 316 318 320 321 321 317
323 321 318 316 314 315 315 317 318 316 317 318 317 317 318 316 316 318 319 315 315 315 315 315 314 314 314 315 316 319 320 321
324 322 319 317 315 315 315 316 317 317 316 316 317 318 317 318 317 317 318 316 315 315 315 315 315 315 315 315 316 315 317 320
324 322 320 318 317 316 315 316 317 317 317 316 315 315 316 316 317 316 317 317 316 315 315 315 314 315 316 316 317 315 318 319
323 324 320 319 318 316 316 316 316 316 316 316 316 315 315 315 315 315 316 316 316 316 316 315 315 314 315 315 318 318 319 318
322 324 322 320 318 317 316 315 316 316 316 316 316 315 315 314 314 314 315 315 316 316 315 316 316 316 318 320 319 319 319 320
320 321 323 321 319 318 316 316 315 315 315 315 315 315 315 314 315 315 315 315 316 316 316 316 315 317 319 319 319 320 321 320
320 318 321 322 321 319 318 317 316 315 315 315 315 314 314 314 315 315 315 315 316 317 318 318 319 319 319 319 318 318 321 320
316 319 320 321 321 320 319 318 317 316 315 315 315 315 314 314 314 314 314 315 316 316 317 318 319 319 319 319 318 321 319 317
316 316 320 321 320 321 320 320 319 317 316 316 316 315 315 315 315 315 315 316 316 317 318 319 319 319 319 319 319 320 316 317
317 316 315 318 320 321 321 321 320 319 318 317 317 317 316 316 316 316 316 317 318 318 319 319 320 320 319 320 319 318 316 315
316 316 316 317 318 320 321 321 321 320 320 319 318 317 316 316 317 317 317 318 318 319 320 320 320 321 320 320 319 316 313 312
315 316 316 315 315 317 319 320 321 321 321 320 319 319 318 318 317 317 318 319 319 320 320 320 320 319 319 319 318 311 310 308

GFSFLT1_925_thetae_060.txt.gz
Theta_e
324 323 323 324 325 323 324 323 321 320 317 319 319 321 319 318 321 322 320 317 320 319 318 319 320 319 318 317 316 315 313 312
323 323 324 324 323 324 322 322 322 320 318 319 320 320 319 318 320 320 319 320 321 321 320 320 321 320 320 319 319 317 315 313
325 323 323 323 324 324 322 322 320 320 320 318 320 321 320 319 321 320 319 321 321 321 321 321 320 321 321 321 319 319 317 313
327 325 323 323 322 321 323 323 320 320 320 320 320 320 319 320 320 319 319 322 323 321 320 321 321 321 322 322 321 320 320 317
328 326 324 323 322 322 322 322 323 321 321 320 321 319 319 319 319 319 320 321 323 322 320 322 323 322 322 322 322 322 321 321
328 327 324 322 322 321 321 321 322 321 321 321 320 319 319 318 319 320 321 321 322 321 320 323 323 321 322 322 322 321 322 322
328 326 324 323 322 321 320 320 321 320 321 321 321 320 319 318 320 319 319 319 320 319 317 320 322 319 317 316 318 322 322 322
328 328 326 324 322 321 320 320 320 321 320 321 321 322 320 318 319 319 319 320 319 319 319 321 319 316 315 315 316 320 321 323
328 328 326 325 322 321 320 320 320 320 321 321 322 322 321 318 318 318 319 318 318 318 318 318 318 316 315 318 320 320 321 322
328 328 327 325 323 321 320 320 321 321 320 320 320 322 322 320 319 318 318 319 317 317 318 317 318 319 318 319 319 319 320 321
328 329 327 326 324 322 320 320 321 322 322 322 322 323 322 322 321 319 319 319 319 319 318 317 317 319 319 320 320 320 320 321
328 328 327 326 325 323 322 320 320 321 322 322 322 322 321 322 321 320 321 320 320 320 320 319 319 318 319 319 319 319 319 320
326 328 328 326 326 325 323 322 320 320 321 322 322 321 321 320 320 321 321 321 321 320 320 320 320 320 319 319 320 319 320 321
325 326 328 328 326 325 324 323 322 321 320 320 321 321 321 321 321 320 320 320 320 321 320 320 320 320 320 320 319 320 321 322
322 325 325 326 326 326 325 324 323 322 321 320 320 321 321 321 320 320 320 320 319 319 319 319 320 320 319 319 319 320 320 320
322 322 323 324 325 326 325 324 324 323 322 321 321 321 320 320 320 320 319 319 319 319 319 319 319 320 320 320 321 321 319 318
321 322 321 321 323 324 325 325 324 323 323 322 322 321 321 320 320 319 319 319 318 318 319 319 319 320 320 320 320 321 320 318
319 319 319 320 320 321 324 325 325 324 323 322 322 321 321 321 320 320 320 319 319 319 319 320 320 321 321 320 320 320 320 318
320 320 320 317 318 318 321 323 325 325 324 324 323 322 322 321 321 321 321 320 320 321 321 321 321 321 321 320 320 320 319 317

GFSFLT1_925_thetae_063.txt.gz
Theta_e
328 325 326 328 329 328 327 325 324 322 322 321 322 321 321 319 319 321 322 321 320 320 320 320 319 318 318 319 319 318 317 317
328 325 326 327 328 328 326 324 322 320 321 321 321 322 320 319 320 321 320 319 318 317 319 320 320 319 318 318 318 317 316 315
329 326 326 327 327 326 324 324 322 320 320 321 321 321 321 320 319 321 321 317 320 316 320 320 321 321 320 320 320 320 318 315
330 328 326 327 327 326 325 322 322 320 320 320 321 320 320 319 320 319 319 321 320 321 322 322 321 323 323 322 322 322 320 318
331 329 327 326 326 325 326 324 321 322 320 319 320 320 321 319 318 321 318 318 321 321 319 321 322 322 323 323 324 323 322 322
331 330 327 326 326 325 323 325 324 323 323 321 320 320 321 321 319 320 320 317 320 321 321 320 322 323 323 324 324 324 324 322
330 329 328 326 325 325 324 323 324 324 322 322 321 320 320 320 321 320 319 319 320 320 321 320 318 322 323 323 322 324 324 323
330 330 330 326 325 325 324 323 323 323 323 322 322 321 321 320 320 320 320 319 321 322 322 322 320 318 320 319 322 322 323 324
329 330 330 327 325 325 325 323 324 323 322 322 322 322 323 320 319 319 320 320 320 322 323 323 322 319 318 320 319 318 318 318
328 329 330 328 326 325 325 323 323 323 323 322 322 322 322 322 320 320 319 320 321 321 321 322 322 321 321 320 319 317 318 319
328 329 330 329 327 325 324 323 324 324 323 323 322 323 323 323 322 322 320 320 322 322 322 321 320 321 321 321 320 318 319 320
328 329 329 329 328 326 325 324 323 324 324 323 323 322 324 324 323 323 322 321 321 321 320 320 320 319 319 319 320 321 320 321
328 330 330 330 329 328 326 325 323 323 325 325 324 324 324 324 324 324 324 323 322 322 322 320 319 320 320 320 320 321 321 321
326 329 330 330 330 329 328 326 325 323 323 325 325 326 326 326 326 325 325 324 324 323 323 323 322 321 322 321 321 321 322 322
323 326 328 330 329 329 329 328 327 325 324 324 325 325 325 325 325 325 325 324 324 324 323 323 323 323 323 323 323 323 322 322
323 323 324 325 327 328 328 328 328 327 325 324 324 325 325 325 325 325 324 324 324 324 324 324 324 324 324 323 323 323 323 323
322 322 322 322 322 324 327 328 328 327 327 326 325 325 325 325 325 325 325 324 324 324 323 323 323 323 322 322 322 323 322 322
322 322 322 322 321 320 322 325 327 327 327 327 326 326 325 325 325 324 324 324 324 324 323 323 323 323 322 321 321 320 321 323
321 322 322 322 322 321 320 320 323 327 327 327 326 326 326 325 325 324 324 324 324 324 323 322 322 323 322 321 321 320 320 321

GFSFLT1_925_thetae_066.txt.gz
Theta_e
330 327 327 329 329 330 327 325 325 325 323 323 323 323 324 322 321 321 322 323 323 323 323 324 324 324 323 322 320 321 320 319
330 327 327 328 329 328 327 325 324 324 322 323 322 322 322 322 321 321 319 321 321 322 321 321 321 321 320 320 320 319 320 318
331 327 327 328 330 328 327 326 324 323 322 322 322 321 320 319 318 318 319 320 321 320 321 320 319 319 318 319 318 317 317 316
331 329 327 328 330 328 326 325 323 322 322 322 322 321 319 319 319 320 320 321 320 319 319 317 319 319 318 318 318 318 318 316
332 329 327 328 329 328 326 324 322 322 322 322 321 321 320 319 320 321 320 320 319 319 318 319 317 321 320 320 319 320 320 318
332 330 328 327 328 328 326 324 322 321 320 322 321 321 320 319 319 320 320 320 320 319 320 320 322 317 322 322 322 321 323 321
330 331 329 327 327 327 326 325 323 323 321 321 321 321 321 320 319 320 320 320 319 320 321 321 322 320 321 322 321 321 323 322
328 331 330 328 328 328 326 326 325 323 323 321 321 320 321 321 319 318 319 319 318 318 320 322 321 319 321 321 320 319 321 322
328 330 331 328 327 328 327 325 325 324 323 322 321 321 321 321 321 319 319 319 318 317 319 320 321 321 318 320 321 320 319 318
327 329 331 329 327 327 327 325 324 325 324 323 322 321 321 321 321 321 320 320 319 319 320 320 319 320 320 319 319 318 316 318
327 328 331 330 327 327 327 326 325 324 323 323 322 322 322 322 320 320 320 320 319 319 321 322 320 321 322 321 320 319 317 319
328 328 331 331 329 327 327 326 325 325 324 322 322 322 322 323 322 321 320 320 320 320 320 321 322 323 323 321 320 319 319 320
327 329 330 331 330 328 327 326 325 326 325 324 322 321 322 323 323 323 322 321 320 320 321 322 322 322 322 322 322 321 321 320
327 330 330 331 331 330 328 327 326 325 326 325 325 324 323 324 325 324 323 323 323 321 321 322 322 323 322 321 321 320 320 320
324 325 329 330 331 331 330 329 327 326 325 326 326 325 324 323 324 326 324 325 324 323 322 322 322 321 321 321 321 320 320 320
323 323 323 323 327 330 330 331 330 328 326 325 326 327 327 327 326 326 326 325 326 325 324 323 323 323 323 322 321 321 321 321
322 323 323 323 323 323 322 328 330 330 328 327 326 325 327 327 327 328 328 327 326 326 325 325 324 323 324 324 323 323 323 323
321 321 323 323 321 321 322 323 321 329 329 329 328 327 326 327 327 327 326 326 326 326 325 325 325 325 324 324 324 323 323 324
318 319 320 315 312 312 313 316 322 323 325 329 329 329 327 326 326 326 326 326 326 326 325 325 325 325 324 324 324 323 322 321

GFSFLT1_925_thetae_069.txt.gz
Theta_e
326 327 329 329 330 328 326 325 325 324 324 324 323 325 326 327 326 326 326 326 325 324 319 323 325 321 322 321 321 320 320 320
326 326 329 329 330 329 327 326 326 324 323 323 322 324 324 324 323 324 325 324 325 325 323 321 325 323 323 324 321 320 320 320
325 325 327 328 329 329 326 325 325 324 322 323 322 321 322 323 323 322 323 324 324 324 324 323 322 323 323 321 321 321 320 320
325 325 325 328 328 328 326 325 324 323 322 322 321 321 321 321 321 322 322 321 322 322 322 321 320 322 321 320 320 319 318 317
325 325 324 327 327 327 326 324 323 323 322 322 321 320 320 320 320 320 320 321 322 320 321 321 320 319 318 319 318 318 317 316
326 324 325 326 327 327 325 324 324 322 322 322 320 319 320 319 319 319 319 320 320 319 320 319 318 318 317 318 318 318 316 315
326 324 326 326 327 326 325 323 321 322 322 321 320 319 319 318 319 320 319 321 320 320 320 318 317 318 320 319 318 318 318 319
327 325 325 325 326 325 324 323 321 322 321 322 321 320 319 318 318 320 320 320 320 320 319 318 321 319 319 321 320 321 321 321
327 326 325 325 326 325 324 323 322 321 321 321 321 321 320 319 318 319 320 320 320 320 319 319 320 319 320 320 321 321 319 319
328 326 325 325 326 325 324 324 323 322 322 321 321 320 321 320 319 318 319 319 319 319 319 320 320 319 321 320 320 321 320 319
325 327 325 325 326 325 325 325 324 323 322 322 321 321 320 320 320 319 318 318 319 319 318 318 319 320 321 320 319 319 320 319
320 327 326 325 326 326 325 324 323 324 323 322 321 321 321 320 320 321 320 318 318 319 318 318 319 319 319 320 320 320 319 319
321 327 326 325 325 326 325 324 324 323 323 323 321 321 322 322 321 320 320 320 319 319 319 318 319 320 320 320 319 320 320 319
321 323 324 326 325 325 326 325 324 324 324 322 322 321 322 322 322 322 321 320 320 319 319 318 318 320 320 320 320 320 320 319
321 321 322 323 323 325 325 325 325 324 324 323 322 321 321 321 322 321 322 321 321 320 319 319 319 319 320 321 321 321 321 320
321 322 321 319 319 318 319 321 325 325 324 324 324 323 322 321 321 321 323 322 322 321 320 319 319 320 320 321 321 321 321 321
320 319 316 314 312 312 313 315 318 322 325 324 325 324 324 323 322 322 322 324 323 323 322 322 321 320 321 321 321 321 320 320
317 313 310 307 305 306 308 314 313 317 315 315 322 324 325 325 324 323 323 323 324 324 324 324 323 322 322 321 321 321 320 319
311 307 304 301 300 301 305 306 306 307 307 308 309 310 312 320 326 326 326 325 325 325 325 325 324 324 324 323 323 323 321 321

GFSFLT1_925_thetae_072.txt.gz
Theta_e
324 328 328 329 328 328 328 327 326 325 325 326 326 326 327 328 328 328 328 327 325 317 316 314 312 310 316 318 317 318 319 320
325 327 327 328 327 327 326 325 325 325 324 324 325 324 326 327 327 327 327 327 324 320 317 317 314 312 318 320 322 321 319 320
324 326 326 327 326 326 325 324 324 324 325 323 323 324 325 326 326 327 327 327 326 322 317 321 320 316 316 319 321 319 319 320
324 326 325 327 326 326 326 325 324 324 323 322 322 321 323 324 324 324 325 326 326 324 320 323 324 321 320 323 322 319 319 319
324 325 325 326 326 326 326 325 325 324 323 322 321 320 321 322 323 323 325 324 324 324 324 321 324 324 322 323 322 320 319 318
325 324 325 326 326 325 325 324 324 323 323 322 322 320 321 320 322 322 322 323 323 322 323 324 323 323 323 322 319 318 319 318
325 324 325 325 325 325 324 323 323 323 322 322 321 321 320 319 320 321 320 321 322 322 321 322 320 321 322 322 318 320 318 317
324 323 324 325 324 324 322 322 321 322 322 322 321 320 320 320 319 319 320 320 320 320 320 321 321 321 319 319 319 319 317 316
323 324 324 325 324 323 323 322 321 321 322 322 321 320 319 319 319 319 319 319 320 320 319 319 319 318 318 319 319 319 318 317
324 324 324 325 325 323 323 321 321 320 321 322 321 320 319 318 318 319 319 319 319 319 320 320 319 319 318 318 319 321 318 318
325 324 324 325 325 324 323 322 321 321 321 321 321 320 320 319 318 318 319 319 319 319 319 320 319 319 319 320 319 319 320 321
325 324 323 324 324 323 323 322 322 321 321 320 321 320 320 320 319 319 318 318 319 319 319 319 319 320 320 320 320 320 320 320
324 323 322 324 324 323 323 323 323 322 321 321 321 320 320 320 320 320 319 318 317 318 319 318 318 318 320 320 320 320 320 319
322 322 322 322 323 325 324 322 322 323 323 322 321 321 321 320 320 320 320 320 318 317 318 318 318 318 318 319 319 319 320 319
319 317 317 317 317 317 318 321 323 322 322 322 321 321 321 321 321 321 320 320 320 320 319 318 318 318 318 319 319 319 319 318
314 314 312 310 310 311 315 315 316 320 323 323 322 321 320 321 321 321 321 321 320 320 320 320 319 319 318 318 318 319 319 319
310 307 305 304 304 307 308 308 308 310 311 316 319 322 322 321 321 321 321 321 321 321 320 320 319 319 319 319 318 318 319 320
305 303 301 299 300 302 302 303 303 303 305 306 305 307 312 318 321 321 320 320 321 321 321 321 321 320 319 319 319 319 319 320
300 298 296 296 297 298 299 299 299 299 300 300 300 301 302 304 308 313 321 321 321 321 322 322 322 322 322 321 321 320 319 320

GFSFLT1_925_thetae_075.txt.gz
Theta_e
322 327 329 329 329 329 329 329 328 327 326 326 325 323 325 325 328 326 326 327 326 324 323 323 319 318 317 319 318 318 318 321
323 326 327 327 328 329 329 328 327 326 325 325 327 325 324 327 327 326 325 327 325 323 322 320 318 316 316 316 317 317 317 321
325 325 326 326 326 327 327 327 326 325 324 325 325 324 323 326 327 327 327 326 323 323 319 317 316 313 314 315 317 317 317 320
326 325 326 325 325 325 326 326 325 324 323 323 323 323 322 325 326 327 327 325 324 322 318 316 315 313 314 316 318 318 318 319
326 326 325 325 324 325 325 324 325 325 324 322 321 322 323 322 323 326 325 326 325 323 318 318 315 314 316 318 320 321 318 318
324 326 325 326 325 324 324 323 323 323 323 321 321 321 321 322 322 324 324 323 326 323 319 320 321 316 317 319 320 320 320 318
324 324 325 326 325 324 323 324 324 323 323 322 322 321 320 320 321 322 323 323 323 324 324 321 321 321 322 318 321 321 318 318
323 323 324 325 324 323 322 323 322 322 323 322 322 321 320 319 321 321 322 322 323 322 322 323 321 318 322 322 320 320 318 318
323 323 324 325 325 323 322 321 321 321 321 321 322 321 321 319 319 321 321 321 322 322 322 323 323 322 320 322 322 321 321 320
323 323 324 324 324 323 323 321 320 321 320 321 321 321 320 319 319 318 320 320 321 321 321 320 321 321 320 320 320 319 319 319
322 323 324 325 324 323 322 322 321 320 319 320 320 320 320 319 319 319 319 318 318 320 319 319 319 320 320 321 319 319 319 319
323 322 322 324 323 323 322 321 320 319 318 319 320 321 320 320 319 319 318 319 319 319 319 320 319 319 319 319 318 319 319 319
323 323 322 322 322 322 321 320 320 319 320 320 318 320 320 320 319 319 319 318 319 319 319 319 319 319 319 319 319 319 319 319
317 317 317 318 321 321 323 322 321 320 321 320 319 319 320 320 320 320 319 319 318 318 318 318 318 318 319 319 320 319 319 319
311 310 311 312 315 316 315 316 320 322 322 321 319 320 320 320 320 319 320 320 320 319 318 318 318 318 318 318 318 319 320 320
309 307 306 306 308 307 308 309 309 314 321 322 321 321 321 320 320 320 320 320 320 320 320 319 318 318 317 317 317 317 318 318
303 303 302 302 301 302 302 302 303 306 307 307 309 312 317 320 320 320 320 320 320 320 320 320 320 319 318 318 318 317 317 318
300 298 297 297 298 299 298 298 299 300 300 300 301 303 305 307 310 314 318 319 320 320 320 320 319 319 319 319 319 318 317 318
297 295 294 294 296 296 295 294 293 294 294 295 296 297 299 300 301 302 305 308 311 317 320 320 320 320 318 320 319 319 318 318

GFSFLT1_925_thetae_078.txt.gz
Theta_e
325 326 329 330 331 332 329 331 327 329 326 326 324 323 324 324 325 325 324 325 326 327 326 325 325 324 323 320 319 319 320 319
322 326 328 329 331 329 328 330 328 327 326 324 323 323 324 324 325 326 325 324 326 327 327 325 323 323 323 320 318 318 319 318
322 325 327 327 327 326 327 327 328 328 325 324 323 323 324 325 327 325 323 323 323 324 323 323 322 319 319 318 317 316 318 319
324 324 325 325 326 326 326 326 328 325 324 324 324 323 323 325 326 324 324 325 325 324 324 322 320 318 317 318 317 316 318 319
324 324 324 325 325 325 325 325 326 323 323 322 323 322 323 324 326 326 325 326 324 322 321 322 318 317 316 317 317 316 318 318
325 325 325 325 325 324 325 325 324 323 322 322 322 322 322 323 324 325 326 325 324 322 320 321 317 315 314 315 316 317 317 318
323 323 325 325 324 324 324 324 324 321 320 321 321 321 322 322 322 322 324 325 323 323 321 319 316 314 313 314 315 318 318 318
322 324 324 325 324 324 324 322 321 320 319 319 321 321 321 321 322 322 322 322 323 321 323 320 316 314 313 313 317 318 320 320
322 323 324 325 324 324 322 321 320 319 319 318 321 321 321 320 320 321 321 322 322 321 321 321 319 318 314 317 317 319 320 318
320 322 324 324 324 323 322 321 320 320 320 319 319 321 320 320 319 319 321 321 322 322 322 322 320 317 319 319 319 320 320 320
322 323 323 324 324 323 322 320 320 320 320 319 318 319 320 320 320 319 319 320 321 321 321 321 322 322 321 319 318 320 321 321
322 323 323 324 323 322 321 320 320 320 319 319 319 319 318 319 319 319 319 319 319 319 320 321 321 321 321 321 320 320 321 321
323 322 322 322 322 321 321 320 320 319 319 319 319 319 318 320 319 319 319 318 319 318 318 319 319 319 319 320 320 320 320 319
314 317 321 322 321 321 320 320 320 319 319 319 318 318 319 320 320 320 319 319 318 318 318 319 319 319 319 319 319 319 318 318
309 308 311 311 312 313 313 314 318 320 319 319 319 318 318 319 320 320 320 319 319 318 318 318 318 318 318 319 319 319 319 319
305 305 305 305 305 305 305 306 308 316 319 317 315 318 319 320 320 320 319 319 319 319 319 319 318 318 318 318 317 318 318 318
300 299 300 301 300 300 299 300 301 304 304 304 305 309 312 314 316 318 319 320 320 319 319 320 319 319 318 318 318 317 317 317
298 297 296 296 296 295 295 295 296 296 297 298 298 300 301 302 305 308 309 311 313 316 318 319 320 319 318 318 318 318 317 317
295 294 294 294 293 293 292 291 291 291 292 293 294 295 296 297 298 299 300 300 302 303 304 307 310 301 300 304 311 316 316 317